Location: Boulin
(43.2500°N, 0.1333°E)
Time: 14:43:30
(UTC+00:00)

Cosmos 773 Rocket - Pass Details

Date: 11 December 2025
Orbit: 740 x 773 km, 74.1° (Epoch: 19 January)

Event Time Altitude Azimuth Distance (km) Brightness Sun altitude
Rises 16:57:48 0° 338° (NNW) 3,224 7.2 -6.2°
Reaches altitude 10° 17:00:10 10° 337° (NNW) 2,300 6.5 -6.6°
Maximum altitude 17:05:23 80° 252° (WSW) 783 4.2 -7.5°
Drops below altitude 10° 17:10:37 10° 166° (SSE) 2,303 6.6 -8.4°
Sets 17:13:00 0° 165° (SSE) 3,228 7.4 -8.8°
